CES9084 ZBHH-ZSOF

Flight info

Callsign CES9084
Flight time 1h 40m
Altitude 31100
Route TODAM B208 CGO W129 KAMDA W128 FYG B208 BIPIM
Aircraft MD82/M-SDFGIRWY/C

Departure

Time 2026-04-17 10:30
Airport Hohhot Baita International Airport (ZBHH)

Arrival

Time 2026-04-17 12:10
Airport Hefei Xinqiao International Airport (ZSOF)
Time Latitude Longitude Altitude Speed Heading
2026-04-17 09:26 40.85147 111.81555 3535 ft 0 kts 340°
2026-04-17 10:21 40.85182 111.81541 3535 ft 9 kts 345°
2026-04-17 10:21 40.85244 111.81578 3535 ft 8 kts 60°
2026-04-17 10:21 40.85248 111.81643 3535 ft 8 kts 100°
2026-04-17 10:22 40.85207 111.81685 3535 ft 8 kts 162°
2026-04-17 10:22 40.85147 111.81709 3535 ft 10 kts 163°
2026-04-17 10:22 40.85080 111.81737 3534 ft 11 kts 162°
2026-04-17 10:22 40.85021 111.81766 3534 ft 7 kts 141°
2026-04-17 10:23 40.85013 111.81834 3533 ft 9 kts 76°
2026-04-17 10:23 40.85032 111.81918 3533 ft 11 kts 72°
2026-04-17 10:23 40.85056 111.82017 3533 ft 12 kts 72°
2026-04-17 10:23 40.85084 111.82136 3533 ft 14 kts 73°
2026-04-17 10:24 40.85115 111.82265 3533 ft 16 kts 73°
2026-04-17 10:24 40.85148 111.82410 3533 ft 17 kts 73°
2026-04-17 10:24 40.85184 111.82565 3533 ft 18 kts 72°
2026-04-17 10:24 40.85223 111.82728 3534 ft 19 kts 72°
2026-04-17 10:25 40.85264 111.82900 3533 ft 20 kts 72°
2026-04-17 10:25 40.85307 111.83082 3533 ft 21 kts 72°
2026-04-17 10:25 40.85352 111.83272 3533 ft 22 kts 72°
2026-04-17 10:25 40.85398 111.83467 3533 ft 20 kts 72°
2026-04-17 10:26 40.85440 111.83645 3533 ft 21 kts 72°
2026-04-17 10:26 40.85484 111.83831 3533 ft 21 kts 72°
2026-04-17 10:26 40.85528 111.84017 3533 ft 21 kts 73°
2026-04-17 10:26 40.85564 111.84172 3534 ft 16 kts 72°
2026-04-17 10:27 40.85573 111.84285 3533 ft 6 kts 123°
2026-04-17 10:27 40.85562 111.84296 3533 ft 2 kts 154°
2026-04-17 10:27 40.85546 111.84306 3532 ft 4 kts 157°
2026-04-17 10:27 40.85512 111.84321 3531 ft 7 kts 162°
2026-04-17 10:28 40.85452 111.84346 3527 ft 11 kts 168°
2026-04-17 10:28 40.85403 111.84290 3526 ft 10 kts 252°
2026-04-17 10:28 40.85399 111.84271 3526 ft 1 kts 252°
2026-04-17 10:28 40.85396 111.84261 3526 ft 2 kts 252°
2026-04-17 10:29 40.85392 111.84243 3526 ft 3 kts 252°
2026-04-17 10:29 40.85359 111.84103 3526 ft 39 kts 252°
2026-04-17 10:29 40.85217 111.83507 3527 ft 98 kts 253°
2026-04-17 10:29 40.84960 111.82419 3525 ft 148 kts 252°
2026-04-17 10:30 40.84604 111.80913 3568 ft 186 kts 251°
2026-04-17 10:30 40.84221 111.79328 4391 ft 176 kts 251°
2026-04-17 10:30 40.83862 111.77820 5197 ft 168 kts 254°
2026-04-17 10:30 40.83509 111.76343 5722 ft 170 kts 253°
2026-04-17 10:31 40.83156 111.74816 6134 ft 178 kts 253°
2026-04-17 10:31 40.82780 111.73210 6517 ft 188 kts 253°
2026-04-17 10:31 40.82382 111.71517 6914 ft 197 kts 253°
2026-04-17 10:31 40.81967 111.69747 7314 ft 206 kts 254°
2026-04-17 10:32 40.81455 111.67935 7694 ft 219 kts 241°
2026-04-17 10:32 40.80409 111.66324 7842 ft 247 kts 220°
2026-04-17 10:32 40.78842 111.65172 8063 ft 270 kts 202°
2026-04-17 10:32 40.76914 111.64885 8429 ft 290 kts 174°
2026-04-17 10:33 40.75014 111.65850 9057 ft 300 kts 147°
2026-04-17 10:33 40.73406 111.67653 9625 ft 306 kts 139°
2026-04-17 10:33 40.71824 111.69555 10150 ft 311 kts 141°
2026-04-17 10:33 40.70133 111.71467 10333 ft 329 kts 142°
2026-04-17 10:34 40.68310 111.73410 10502 ft 345 kts 144°
2026-04-17 10:34 40.66360 111.75378 10712 ft 360 kts 145°
2026-04-17 10:34 40.64304 111.77356 11108 ft 368 kts 146°
2026-04-17 10:34 40.62159 111.79192 11694 ft 368 kts 156°
2026-04-17 10:35 40.59791 111.80485 12230 ft 370 kts 163°
2026-04-17 10:35 40.57355 111.81585 12805 ft 371 kts 164°
2026-04-17 10:35 40.54894 111.82669 13346 ft 375 kts 163°
2026-04-17 10:35 40.52406 111.83771 13861 ft 379 kts 163°
2026-04-17 10:36 40.49893 111.84901 14353 ft 383 kts 163°
2026-04-17 10:36 40.47398 111.86047 14881 ft 386 kts 162°
2026-04-17 10:36 40.44858 111.87240 15402 ft 389 kts 162°
2026-04-17 10:36 40.42302 111.88458 15891 ft 393 kts 162°
2026-04-17 10:37 40.39719 111.89683 16392 ft 396 kts 163°
2026-04-17 10:37 40.37079 111.90731 16888 ft 398 kts 167°
2026-04-17 10:37 40.34386 111.91644 17410 ft 401 kts 168°
2026-04-17 10:37 40.31662 111.92519 17905 ft 404 kts 168°
2026-04-17 10:38 40.28918 111.93398 18390 ft 407 kts 168°
2026-04-17 10:38 40.26161 111.94293 18871 ft 409 kts 168°
2026-04-17 10:38 40.23389 111.95209 19352 ft 411 kts 168°
2026-04-17 10:38 40.20605 111.96138 19797 ft 414 kts 167°
2026-04-17 10:39 40.17806 111.97084 20267 ft 416 kts 167°
2026-04-17 10:39 40.15000 111.98040 20719 ft 419 kts 167°
2026-04-17 10:39 40.12166 111.99006 21159 ft 422 kts 167°
2026-04-17 10:39 40.09314 111.99976 21592 ft 425 kts 167°
2026-04-17 10:40 40.06441 112.00950 22029 ft 428 kts 167°
2026-04-17 10:40 40.03549 112.01927 22465 ft 430 kts 167°
2026-04-17 10:40 40.00643 112.02906 22879 ft 434 kts 167°
2026-04-17 10:40 39.97713 112.03892 23304 ft 437 kts 167°
2026-04-17 10:41 39.94756 112.04883 23664 ft 440 kts 167°
2026-04-17 10:41 39.91781 112.05879 24015 ft 442 kts 167°
2026-04-17 10:41 39.88797 112.06878 24400 ft 444 kts 167°
2026-04-17 10:41 39.85800 112.07882 24764 ft 446 kts 167°
2026-04-17 10:42 39.82824 112.08880 25106 ft 448 kts 167°
2026-04-17 10:42 39.79800 112.09893 25474 ft 450 kts 168°
2026-04-17 10:42 39.76721 112.10924 25815 ft 452 kts 168°
2026-04-17 10:42 39.73703 112.11933 26132 ft 455 kts 168°
2026-04-17 10:43 39.70622 112.12961 26460 ft 458 kts 168°
2026-04-17 10:43 39.67530 112.13993 26829 ft 460 kts 168°
2026-04-17 10:43 39.64425 112.15027 27195 ft 461 kts 168°
2026-04-17 10:43 39.61306 112.16065 27523 ft 464 kts 168°
2026-04-17 10:44 39.58174 112.17107 27844 ft 467 kts 168°
2026-04-17 10:44 39.55011 112.18158 28170 ft 469 kts 168°
2026-04-17 10:44 39.51842 112.19211 28564 ft 470 kts 168°
2026-04-17 10:44 39.48675 112.20248 29069 ft 468 kts 169°
2026-04-17 10:45 39.45509 112.21124 29590 ft 465 kts 172°
2026-04-17 10:45 39.42331 112.21884 30048 ft 463 kts 172°
2026-04-17 10:45 39.39164 112.22606 30414 ft 462 kts 173°
2026-04-17 10:45 39.35996 112.23333 30750 ft 462 kts 173°
2026-04-17 10:46 39.32817 112.24079 30913 ft 466 kts 172°
2026-04-17 10:46 39.26428 112.25630 31031 ft 465 kts 172°
2026-04-17 10:47 39.20104 112.27198 31059 ft 461 kts 172°
2026-04-17 10:47 39.13817 112.28751 31064 ft 460 kts 172°
2026-04-17 10:48 39.07522 112.30292 31071 ft 461 kts 172°
2026-04-17 10:48 39.01219 112.31821 31069 ft 461 kts 172°
2026-04-17 10:49 38.94909 112.33354 31068 ft 462 kts 172°
2026-04-17 10:49 38.88590 112.34890 31065 ft 462 kts 172°
2026-04-17 10:50 38.82282 112.36424 31065 ft 460 kts 172°
2026-04-17 10:50 38.76007 112.37944 31060 ft 458 kts 172°
2026-04-17 10:51 38.69794 112.39443 30864 ft 456 kts 172°
2026-04-17 10:51 38.66681 112.40184 30968 ft 453 kts 172°
2026-04-17 10:51 38.63543 112.40940 31012 ft 452 kts 172°
2026-04-17 10:52 38.57404 112.42427 31043 ft 452 kts 172°
2026-04-17 10:52 38.51219 112.43920 31047 ft 452 kts 172°
2026-04-17 10:53 38.45033 112.45402 31048 ft 452 kts 172°
2026-04-17 10:53 38.38845 112.46858 31047 ft 452 kts 172°
2026-04-17 10:54 38.32659 112.48305 31045 ft 452 kts 172°
2026-04-17 10:54 38.26467 112.49764 31045 ft 452 kts 172°
2026-04-17 10:55 38.20276 112.51226 31047 ft 453 kts 172°
2026-04-17 10:55 38.14080 112.52687 31045 ft 453 kts 172°
2026-04-17 10:56 38.07884 112.54144 31047 ft 453 kts 172°
2026-04-17 10:56 38.01680 112.55598 31043 ft 453 kts 172°
2026-04-17 10:57 37.95486 112.57047 31036 ft 453 kts 172°
2026-04-17 10:57 37.89286 112.58495 31033 ft 453 kts 172°
2026-04-17 10:58 37.83123 112.59943 31033 ft 453 kts 172°
2026-04-17 10:58 37.76879 112.61426 31030 ft 453 kts 172°
2026-04-17 10:59 37.70724 112.63165 31031 ft 454 kts 167°
2026-04-17 10:59 37.65674 112.64921 31032 ft 453 kts 167°
2026-04-17 11:00 37.58620 112.67379 31035 ft 451 kts 167°
2026-04-17 11:00 37.53544 112.69093 31037 ft 451 kts 167°
2026-04-17 11:01 37.47478 112.71106 31042 ft 451 kts 167°
2026-04-17 11:01 37.41407 112.73117 31048 ft 451 kts 167°
2026-04-17 11:02 37.35373 112.75121 31054 ft 451 kts 167°
2026-04-17 11:02 37.29296 112.77141 31055 ft 452 kts 167°
2026-04-17 11:03 37.23221 112.79155 31060 ft 452 kts 167°
2026-04-17 11:03 37.17135 112.81171 31062 ft 452 kts 167°
2026-04-17 11:04 37.11056 112.83179 31067 ft 451 kts 167°
2026-04-17 11:04 37.04996 112.85180 31063 ft 450 kts 167°
2026-04-17 11:05 36.98947 112.87171 31067 ft 449 kts 167°
2026-04-17 11:05 36.92905 112.89157 31064 ft 449 kts 167°
2026-04-17 11:06 36.86888 112.91141 31067 ft 450 kts 167°
2026-04-17 11:06 36.80792 112.93151 31061 ft 450 kts 168°
2026-04-17 11:07 36.74772 112.95126 31062 ft 450 kts 167°
2026-04-17 11:07 36.68730 112.97108 31064 ft 448 kts 168°
2026-04-17 11:08 36.62708 112.99080 31065 ft 448 kts 168°
2026-04-17 11:08 36.56674 113.01045 31062 ft 449 kts 168°
2026-04-17 11:09 36.50627 113.03014 31071 ft 449 kts 168°
2026-04-17 11:09 36.44570 113.04988 31065 ft 450 kts 168°
2026-04-17 11:10 36.35483 113.07946 31068 ft 450 kts 168°
2026-04-17 11:10 36.29416 113.09917 31068 ft 451 kts 168°
2026-04-17 11:11 36.23343 113.11917 31078 ft 452 kts 166°
2026-04-17 11:11 36.17408 113.14496 31090 ft 452 kts 162°
2026-04-17 11:12 36.11584 113.17238 31084 ft 450 kts 162°
2026-04-17 11:12 36.05661 113.19959 31092 ft 451 kts 163°
2026-04-17 11:13 35.99793 113.22585 31090 ft 452 kts 163°
2026-04-17 11:13 35.93870 113.25218 31107 ft 452 kts 163°
2026-04-17 11:14 35.87958 113.27849 31105 ft 452 kts 163°
2026-04-17 11:14 35.82049 113.30487 31108 ft 451 kts 163°
2026-04-17 11:15 35.76158 113.33115 31103 ft 449 kts 163°
2026-04-17 11:15 35.70278 113.35736 31103 ft 450 kts 163°
2026-04-17 11:16 35.64386 113.38361 31095 ft 451 kts 163°
2026-04-17 11:16 35.58481 113.40992 31094 ft 451 kts 163°
2026-04-17 11:17 35.52613 113.43588 31082 ft 451 kts 163°
2026-04-17 11:17 35.46704 113.46202 31080 ft 452 kts 163°
2026-04-17 11:18 35.40787 113.48831 31070 ft 451 kts 163°
2026-04-17 11:18 35.34892 113.51454 31067 ft 450 kts 163°
2026-04-17 11:19 35.29013 113.54070 31058 ft 450 kts 163°
2026-04-17 11:19 35.23123 113.56686 31055 ft 450 kts 163°
2026-04-17 11:20 35.17236 113.59297 31052 ft 450 kts 163°
2026-04-17 11:20 35.11344 113.61904 31048 ft 450 kts 163°
2026-04-17 11:21 35.05451 113.64509 31045 ft 450 kts 163°
2026-04-17 11:21 34.99564 113.67107 31045 ft 449 kts 163°
2026-04-17 11:22 34.93697 113.69690 31050 ft 447 kts 164°
2026-04-17 11:22 34.87859 113.72258 31049 ft 447 kts 164°
2026-04-17 11:23 34.81933 113.74535 31050 ft 445 kts 169°
2026-04-17 11:23 34.75940 113.76413 31054 ft 445 kts 169°
2026-04-17 11:24 34.69977 113.78305 31055 ft 445 kts 169°
2026-04-17 11:24 34.64006 113.80270 31058 ft 443 kts 168°
2026-04-17 11:25 34.58064 113.82251 31061 ft 442 kts 168°
2026-04-17 11:25 34.52127 113.84221 31057 ft 442 kts 169°
2026-04-17 11:26 34.46179 113.86135 31061 ft 442 kts 169°
2026-04-17 11:26 34.40226 113.87999 31063 ft 442 kts 169°
2026-04-17 11:27 34.34277 113.89868 31057 ft 442 kts 169°
2026-04-17 11:27 34.28324 113.91750 31059 ft 442 kts 169°
2026-04-17 11:28 34.22387 113.93628 31055 ft 440 kts 170°
2026-04-17 11:28 34.16475 113.95493 31057 ft 438 kts 170°
2026-04-17 11:29 34.10592 113.97344 31056 ft 436 kts 170°
2026-04-17 11:29 34.04754 113.99170 31056 ft 436 kts 170°
2026-04-17 11:30 33.98871 114.01007 31059 ft 436 kts 170°
2026-04-17 11:30 33.92993 114.02847 31059 ft 436 kts 170°
2026-04-17 11:31 33.87115 114.04687 31057 ft 436 kts 170°
2026-04-17 11:31 33.81265 114.06514 31056 ft 433 kts 171°
2026-04-17 11:32 33.75442 114.08330 31068 ft 431 kts 171°
2026-04-17 11:32 33.69640 114.10134 31067 ft 430 kts 171°
2026-04-17 11:33 33.63845 114.11936 31070 ft 430 kts 171°
2026-04-17 11:33 33.58065 114.13730 31066 ft 429 kts 171°
2026-04-17 11:34 33.52295 114.15517 31066 ft 428 kts 171°
2026-04-17 11:34 33.46544 114.17294 31066 ft 427 kts 171°
2026-04-17 11:35 33.40836 114.19069 31066 ft 427 kts 168°
2026-04-17 11:35 33.38112 114.20581 31070 ft 440 kts 150°
2026-04-17 11:35 33.35852 114.23110 31073 ft 454 kts 132°
2026-04-17 11:36 33.34269 114.26422 31072 ft 466 kts 117°
2026-04-17 11:36 33.33182 114.30094 31061 ft 469 kts 113°
2026-04-17 11:36 33.31179 114.37524 31064 ft 469 kts 114°
2026-04-17 11:37 33.29037 114.44815 31062 ft 467 kts 116°
2026-04-17 11:37 33.26767 114.52092 31068 ft 467 kts 116°
2026-04-17 11:38 33.24460 114.59334 31068 ft 466 kts 116°
2026-04-17 11:38 33.22174 114.66578 31063 ft 465 kts 116°
2026-04-17 11:39 33.19915 114.73807 31062 ft 464 kts 116°
2026-04-17 11:39 33.17638 114.81020 31061 ft 465 kts 116°
2026-04-17 11:40 33.15340 114.88240 31061 ft 465 kts 116°
2026-04-17 11:40 33.13044 114.95466 31065 ft 466 kts 116°
2026-04-17 11:41 33.10750 115.02706 31060 ft 467 kts 115°
2026-04-17 11:41 33.08454 115.09952 31057 ft 468 kts 116°
2026-04-17 11:42 33.06157 115.17203 31058 ft 467 kts 115°
2026-04-17 11:42 33.03843 115.24427 31060 ft 466 kts 116°
2026-04-17 11:43 33.01533 115.31576 31063 ft 465 kts 116°
2026-04-17 11:43 32.99222 115.38798 31064 ft 466 kts 116°
2026-04-17 11:44 32.96922 115.46033 31064 ft 467 kts 116°
2026-04-17 11:44 32.94674 115.53154 31066 ft 468 kts 116°
2026-04-17 11:45 32.92360 115.60515 31066 ft 468 kts 116°
2026-04-17 11:45 32.90076 115.67780 31060 ft 468 kts 116°
2026-04-17 11:46 32.87465 115.74745 30839 ft 460 kts 131°
2026-04-17 11:46 32.85499 115.77731 30305 ft 455 kts 136°
2026-04-17 11:46 32.83433 115.80555 29730 ft 449 kts 137°
2026-04-17 11:47 32.81382 115.83316 29124 ft 443 kts 137°
2026-04-17 11:47 32.79870 115.85362 28675 ft 439 kts 136°
2026-04-17 11:47 32.77876 115.88087 28091 ft 434 kts 135°
2026-04-17 11:47 32.75922 115.90802 27515 ft 430 kts 135°
2026-04-17 11:48 32.74003 115.93503 26954 ft 425 kts 134°
2026-04-17 11:48 32.72109 115.96189 26402 ft 421 kts 134°
2026-04-17 11:48 32.70246 115.98842 25863 ft 417 kts 134°
2026-04-17 11:48 32.68396 116.01475 25350 ft 413 kts 133°
2026-04-17 11:49 32.66564 116.04078 24860 ft 409 kts 133°
2026-04-17 11:49 32.65357 116.05791 24521 ft 407 kts 133°
2026-04-17 11:49 32.62937 116.09215 23855 ft 403 kts 132°
2026-04-17 11:49 32.61744 116.10899 23519 ft 402 kts 132°
2026-04-17 11:50 32.59951 116.13431 22921 ft 400 kts 132°
2026-04-17 11:50 32.58170 116.15942 22343 ft 396 kts 132°
2026-04-17 11:50 32.56403 116.18434 21770 ft 393 kts 131°
2026-04-17 11:50 32.54662 116.20916 21208 ft 390 kts 131°
2026-04-17 11:51 32.52953 116.23385 20660 ft 386 kts 130°
2026-04-17 11:51 32.51263 116.25844 20121 ft 383 kts 130°
2026-04-17 11:51 32.49594 116.28277 19590 ft 379 kts 130°
2026-04-17 11:51 32.47936 116.30691 19070 ft 376 kts 130°
2026-04-17 11:52 32.46295 116.33077 18560 ft 372 kts 130°
2026-04-17 11:52 32.44664 116.35443 18020 ft 369 kts 130°
2026-04-17 11:52 32.43048 116.37784 17431 ft 365 kts 130°
2026-04-17 11:52 32.41450 116.40096 16917 ft 361 kts 130°
2026-04-17 11:53 32.39865 116.42389 16399 ft 358 kts 130°
2026-04-17 11:53 32.38296 116.44656 15900 ft 355 kts 130°
2026-04-17 11:53 32.36736 116.46908 15409 ft 353 kts 129°
2026-04-17 11:53 32.35182 116.49151 14919 ft 351 kts 129°
2026-04-17 11:54 32.33643 116.51372 14446 ft 348 kts 129°
2026-04-17 11:54 32.32114 116.53577 13968 ft 346 kts 129°
2026-04-17 11:54 32.30596 116.55767 13474 ft 343 kts 129°
2026-04-17 11:54 32.29086 116.57941 12958 ft 341 kts 129°
2026-04-17 11:55 32.27585 116.60098 12447 ft 339 kts 129°
2026-04-17 11:55 32.26093 116.62237 11949 ft 336 kts 129°
2026-04-17 11:55 32.24610 116.64363 11458 ft 333 kts 129°
2026-04-17 11:55 32.23115 116.66379 10977 ft 329 kts 139°
2026-04-17 11:56 32.21255 116.67918 10499 ft 325 kts 149°
2026-04-17 11:56 32.19309 116.69228 10136 ft 318 kts 150°
2026-04-17 11:56 32.17396 116.70478 9880 ft 308 kts 150°
2026-04-17 11:56 32.15570 116.71666 9795 ft 292 kts 150°
2026-04-17 11:57 32.13816 116.72808 9580 ft 288 kts 150°
2026-04-17 11:57 32.12071 116.73954 9243 ft 285 kts 150°
2026-04-17 11:57 32.10353 116.75096 8917 ft 282 kts 150°
2026-04-17 11:57 32.08656 116.76239 8586 ft 280 kts 149°
2026-04-17 11:58 32.06977 116.77379 8260 ft 278 kts 149°
2026-04-17 11:58 32.05307 116.78519 7937 ft 277 kts 149°
2026-04-17 11:58 32.03644 116.79657 7619 ft 276 kts 149°
2026-04-17 11:58 32.01988 116.80792 7302 ft 275 kts 149°
2026-04-17 11:59 32.00342 116.81921 6990 ft 274 kts 149°
2026-04-17 11:59 31.98698 116.83047 6679 ft 273 kts 149°
2026-04-17 11:59 31.97062 116.84167 6369 ft 272 kts 149°
2026-04-17 11:59 31.95432 116.85283 6033 ft 270 kts 149°
2026-04-17 12:00 31.93809 116.86392 5714 ft 269 kts 149°
2026-04-17 12:00 31.92196 116.87490 5428 ft 267 kts 149°
2026-04-17 12:00 31.90591 116.88583 5180 ft 266 kts 149°
2026-04-17 12:00 31.88994 116.89671 4935 ft 265 kts 149°
2026-04-17 12:01 31.87398 116.90756 4684 ft 264 kts 149°
2026-04-17 12:01 31.85830 116.91824 4437 ft 263 kts 149°
2026-04-17 12:01 31.84265 116.92889 4193 ft 257 kts 149°
2026-04-17 12:01 31.82748 116.93920 4086 ft 246 kts 149°
2026-04-17 12:02 31.81307 116.94898 4026 ft 232 kts 149°
2026-04-17 12:02 31.79949 116.95819 3990 ft 221 kts 149°
2026-04-17 12:02 31.78629 116.96713 3988 ft 218 kts 149°
2026-04-17 12:02 31.77318 116.97602 3983 ft 218 kts 149°
2026-04-17 12:03 31.76008 116.98494 3986 ft 218 kts 147°
2026-04-17 12:03 31.74935 116.99729 3849 ft 220 kts 113°
2026-04-17 12:03 31.74699 117.01447 3620 ft 214 kts 76°
2026-04-17 12:03 31.75282 117.03019 3410 ft 207 kts 58°
2026-04-17 12:04 31.76011 117.04455 3138 ft 202 kts 58°
2026-04-17 12:04 31.76733 117.05850 2866 ft 198 kts 58°
2026-04-17 12:04 31.77455 117.07205 2616 ft 194 kts 57°
2026-04-17 12:04 31.78171 117.08529 2436 ft 188 kts 57°
2026-04-17 12:05 31.79028 117.09624 2356 ft 181 kts 25°
2026-04-17 12:05 31.80249 117.09744 2337 ft 183 kts 343°
2026-04-17 12:05 31.81443 117.09194 2327 ft 185 kts 337°
2026-04-17 12:05 31.82606 117.08531 2301 ft 186 kts 334°
2026-04-17 12:06 31.83754 117.07832 2287 ft 185 kts 333°
2026-04-17 12:06 31.84866 117.07109 2284 ft 186 kts 331°
2026-04-17 12:06 31.85989 117.06352 2286 ft 187 kts 331°
2026-04-17 12:06 31.87111 117.05595 2281 ft 181 kts 331°
2026-04-17 12:07 31.88160 117.04887 2293 ft 165 kts 331°
2026-04-17 12:07 31.89160 117.04215 2122 ft 170 kts 331°
2026-04-17 12:07 31.90178 117.03526 1869 ft 168 kts 331°
2026-04-17 12:07 31.91178 117.02848 1613 ft 162 kts 331°
2026-04-17 12:08 31.92131 117.02203 1366 ft 154 kts 332°
2026-04-17 12:08 31.93037 117.01589 1155 ft 148 kts 332°
2026-04-17 12:08 31.93925 117.00995 984 ft 146 kts 332°
2026-04-17 12:08 31.94791 117.00393 815 ft 144 kts 330°
2026-04-17 12:09 31.95662 116.99795 626 ft 145 kts 331°
2026-04-17 12:09 31.96536 116.99213 461 ft 143 kts 330°
2026-04-17 12:09 31.97400 116.98631 282 ft 142 kts 330°
2026-04-17 12:09 31.98222 116.98075 220 ft 118 kts 330°
2026-04-17 12:10 31.98774 116.97704 219 ft 77 kts 329°
2026-04-17 12:10 31.98969 116.97498 222 ft 27 kts 303°
2026-04-17 12:10 31.99027 116.97393 223 ft 15 kts 303°
2026-04-17 12:10 31.99085 116.97287 223 ft 16 kts 303°
2026-04-17 12:11 31.99138 116.97176 221 ft 16 kts 293°
2026-04-17 12:11 31.99152 116.97096 218 ft 1 kts 274°
2026-04-17 12:11 31.99153 116.97083 218 ft 2 kts 274°
2026-04-17 12:12 31.99152 116.97044 218 ft 2 kts 259°
2026-04-17 12:12 31.99148 116.97021 220 ft 4 kts 259°
2026-04-17 12:12 31.99143 116.96986 222 ft 5 kts 259°
2026-04-17 12:12 31.99136 116.96941 220 ft 6 kts 260°
2026-04-17 12:13 31.99131 116.96882 218 ft 8 kts 270°
2026-04-17 12:13 31.99114 116.96825 220 ft 7 kts 221°
2026-04-17 12:13 31.99064 116.96807 220 ft 2 kts 190°